Regional Weather Roundup
Issued by NWS Cleveland, OH

Home | Current Version | Previous Version | Text Only | Print | Product List | Glossary Off
Versions: 1 2 3 4 5 6 7 8 9 10 11 12 13 14 15 16 17 18 19 20 21 22 23 24 25 26 27 28 29 30 31 32 33 34 35 36 37 38 39 40 41 42 43 44 45 46 47 48 49 50

000
ASUS41 KCLE 020802
RWRCLE
OHIO REGIONAL WEATHER ROUNDUP
NATIONAL WEATHER SERVICE CLEVELAND, OH
300 AM EST MON MAR 02 2015

NOTE: "FAIR" INDICATES FEW OR NO CLOUDS BELOW 12,000 FEET WITH NO
SIGNIFICANT WEATHER AND/OR OBSTRUCTIONS TO VISIBILITY.

OHZ001>008-015>018-024>027-034-035-043-044-020900-
   NORTHWEST OHIO

CITY           SKY/WX    TMP DP  RH WIND       PRES   REMARKS
DEFIANCE       CLOUDY    22  15  75 W6        30.33R WCI  14
FINDLAY        CLOUDY    22  16  78 W13G23    30.30R WCI  10
TOLEDO EXPRESS CLOUDY    22  16  78 W9        30.29R WCI  12
TOLEDO EXEC    CLOUDY    23  16  74 W13       30.29S WCI  11
LIMA           CLOUDY    20  15  81 W17       30.32R WCI   5
$$

OHZ009>014-019>023-028>033-038-089-020900-
   NORTHEAST OHIO

CITY           SKY/WX    TMP DP  RH WIND       PRES   REMARKS
CLE-HOPKINS    LGT SNOW  22  16  78 W14       30.30R WCI   9
CLE-LAKEFRONT  CLOUDY    22  17  81 W16       30.27R WCI   8
CUY CO. ARPT   NOT AVBL
LORAIN-ELYRIA  CLOUDY    21  16  81 NW14      30.28R WCI   8
ASHTABULA      CLOUDY    21  16  81 W13       30.22S WCI   9
AKRON-CANTON   CLOUDY    23  18  81 NW13      30.22R HAZE    WCI  11
WOOSTER        CLOUDY    22  18  85 NW13      30.25R WCI  10
MANSFIELD      CLOUDY    21  18  88 W10G20    30.25R WCI  10
YOUNGSTOWN     LGT SNOW  22  18  85 NW14      30.19S BLWGSNOWWCI   9
$$

OHZ042-051>053-060>062-070>072-077>081-020900-
  SOUTHWEST OHIO

CITY           SKY/WX    TMP DP  RH WIND       PRES   REMARKS
CINC-COVINGTON CLOUDY    27  20  75 NW17      30.37R WCI  14
CINC-LUNKEN    MOCLDY    27  20  75 NW9       30.40R WCI  18
HAMILTON       PTCLDY    24  18  77 W12       30.40R WCI  13
DAYTON         MOCLDY    21  16  81 W12       30.35R WCI   9
WRIGHT-PAT AFB PTCLDY    22  17  78 W10       30.35R WCI  11
DAYTON GENERAL PTCLDY    23  18  81 NW9       30.35R WCI  13
WILMINGTON     CLOUDY    26  20  77 W13       30.32S WCI  15
$$

OHZ036-037-039>041-045>050-054>059-063>069-073>076-082>088-020900-
  CENTRAL AND SOUTHEAST OHIO

CITY           SKY/WX    TMP DP  RH WIND       PRES   REMARKS
COLUMBUS       CLOUDY    24  19  81 W17       30.30  WCI  11
OSU AIRPORT    MOCLDY    23  17  78 W16       30.30  WCI  10
BOLTON FIELD   MOCLDY   N/A N/A N/A W9        30.31F
RICKENBACK AFB NOT AVBL
NEWARK         CLOUDY    27  21  78 W9        30.28R WCI  18
MARION         CLOUDY    22  16  78 NW17G26   30.30R WCI   8
LANCASTER      MOCLDY    27  21  78 W10       30.30R WCI  17
ZANESVILLE     MOCLDY    28  22  78 NW8       30.26  WCI  20
NEW PHILLY     CLOUDY    28  21  75 NW10      30.25R WCI  19
$$



USA.gov is the U.S. government's official web portal to all federal, state and local government web resources and services.